Location: Bamobli
(6.6379°N, 10.9396°W)
Time: 05:35:06
(UTC+00:00)

Atlas Centaur 2 - Pass Details

Date: 09 October 2020
Orbit: 459 x 1310 km, 30.4° (Epoch: 30 October)

Event Time Altitude Azimuth Distance (km) Brightness Sun altitude
Rises 20:13:40 0° 208° (SSW) 4,173 6.2 -26.2°
Reaches altitude 10° 20:18:14 10° 187° (S) 3,077 5.2 -27.3°
Enters shadow 20:21:38 15° 161° (SSE) 2,593 4.5 -28.2°
